Location: Banksville Park
(38.5557°N, 75.1182°W)
Time: 18:59:48
(UTC+00:00)

SAR-Lupe-1 - Pass Details

Date: 25 January 2021
Orbit: 482 x 484 km, 98.2° (Epoch: 05 March)

Event Time Altitude Azimuth Distance (km) Brightness Sun altitude
Rises 11:25:29 0° 194° (SSW) 2,533 7.7 -9.2°
Reaches altitude 10° 11:27:51 10° 210° (SSW) 1,658 6.6 -8.8°
Maximum altitude 11:30:43 23° 263° (W) 1,083 5.3 -8.3°
Drops below altitude 10° 11:33:36 10° 317° (NW) 1,669 6.2 -7.7°
Enters shadow 11:35:09 - 329° (NNW) 2,230 7.0 -7.4°
